Time,TemperatureF,DewpointF,PressureIn,WindDirection,WindDirectionDegrees,WindSpeedMPH,WindSpeedGustMPH,Humidity,HourlyPrecipIn,Conditions,Clouds,dailyrainin,SoftwareType,DateUTC
2013-05-15 00:00:00,71.0,-99.9,30.17,SW,220,10.0,-999.0,-999,-99.99,,,-99.99,,2013-05-15 05:00:00,
2013-05-15 00:52:00,71.0,-99.9,30.17,SW,220,10.0,-999.0,-999,-99.99,,,-99.99,,2013-05-15 05:52:00,
2013-05-15 01:00:00,71.0,-99.9,30.16,SSW,210,13.0,-999.0,-999,-99.99,,,-99.99,,2013-05-15 06:00:00,
2013-05-15 01:52:00,71.0,-99.9,30.16,SSW,210,13.0,-999.0,-999,-99.99,,,-99.99,,2013-05-15 06:52:00,
2013-05-15 02:00:00,70.0,-99.9,30.15,SW,220,10.0,-999.0,-999,-99.99,,,-99.99,,2013-05-15 07:00:00,
2013-05-15 02:52:00,70.0,-99.9,30.15,SW,220,10.0,-999.0,-999,-99.99,,,-99.99,,2013-05-15 07:52:00,
2013-05-15 03:00:00,70.0,-99.9,30.15,SW,220,9.0,-999.0,-999,-99.99,,,-99.99,,2013-05-15 08:00:00,
2013-05-15 03:53:00,70.0,-99.9,30.15,SW,220,9.0,-999.0,-999,-99.99,,,-99.99,,2013-05-15 08:53:00,
2013-05-15 04:00:00,70.0,-99.9,30.17,SW,230,10.0,-999.0,-999,-99.99,,,-99.99,,2013-05-15 09:00:00,
2013-05-15 04:53:00,70.0,-99.9,30.17,SW,230,10.0,-999.0,-999,-99.99,,,-99.99,,2013-05-15 09:53:00,
2013-05-15 05:00:00,68.0,-99.9,30.18,WNW,290,5.0,-999.0,-999,-99.99,,,-99.99,,2013-05-15 10:00:00,
2013-05-15 05:53:00,68.0,-99.9,30.18,WNW,290,5.0,-999.0,-999,-99.99,,,-99.99,,2013-05-15 10:53:00,
2013-05-15 06:00:00,68.0,-99.9,30.19,WNW,300,7.0,-999.0,-999,-99.99,,,-99.99,,2013-05-15 11:00:00,
2013-05-15 07:00:00,69.0,-99.9,30.19,NNW,340,7.0,-999.0,-999,-99.99,,,-99.99,,2013-05-15 12:00:00,
2013-05-15 07:58:00,69.0,-99.9,30.19,NNW,340,7.0,-999.0,-999,-99.99,,,-99.99,,2013-05-15 12:58:00,
2013-05-15 08:00:00,74.0,-99.9,30.21,North,350,3.0,-999.0,-999,-99.99,,,-99.99,,2013-05-15 13:00:00,
2013-05-15 09:00:00,75.0,-99.9,30.20,North,10,2.0,-999.0,-999,-99.99,,,-99.99,,2013-05-15 14:00:00,
2013-05-15 10:00:00,74.0,-99.9,30.20,NE,40,5.0,-999.0,-999,-99.99,,,-99.99,,2013-05-15 15:00:00,
2013-05-15 11:00:00,71.0,-99.9,30.19,ENE,70,5.0,-999.0,-999,-99.99,,,-99.99,,2013-05-15 16:00:00,
2013-05-15 12:00:00,72.0,-99.9,30.17,East,80,3.0,-999.0,-999,-99.99,,,-99.99,,2013-05-15 17:00:00,
2013-05-15 12:49:00,72.0,-99.9,30.17,East,80,3.0,-999.0,-999,-99.99,,,-99.99,,2013-05-15 17:49:00,
2013-05-15 13:00:00,73.0,-99.9,30.16,SSW,200,7.0,-999.0,-999,-99.99,,,-99.99,,2013-05-15 18:00:00,
2013-05-15 13:59:00,73.0,-99.9,30.16,SSW,200,7.0,-999.0,-999,-99.99,,,-99.99,,2013-05-15 18:59:00,
2013-05-15 14:00:00,74.0,-99.9,30.14,SSW,200,9.0,-999.0,-999,-99.99,,,-99.99,,2013-05-15 19:00:00,
2013-05-15 15:00:00,74.0,-99.9,30.11,South,190,11.0,-999.0,-999,-99.99,,,-99.99,,2013-05-15 20:00:00,
2013-05-15 16:00:00,75.0,-99.9,30.09,South,180,13.0,-999.0,-999,-99.99,,,-99.99,,2013-05-15 21:00:00,
2013-05-15 17:00:00,75.0,-99.9,30.08,SSE,160,14.0,-999.0,-999,-99.99,,,-99.99,,2013-05-15 22:00:00,
2013-05-15 18:00:00,74.0,-99.9,30.06,SSE,160,14.0,-999.0,-999,-99.99,,,-99.99,,2013-05-15 23:00:00,
2013-05-15 19:00:00,74.0,-99.9,30.06,South,170,11.0,-999.0,-999,-99.99,,,-99.99,,2013-05-16 00:00:00,
2013-05-15 19:59:00,74.0,-99.9,30.06,South,170,11.0,-999.0,-999,-99.99,,,-99.99,,2013-05-16 00:59:00,
2013-05-15 20:00:00,72.0,-99.9,30.05,SSE,150,11.0,-999.0,-999,-99.99,,,-99.99,,2013-05-16 01:00:00,
2013-05-15 22:00:00,72.0,-99.9,30.05,SSE,160,10.0,-999.0,-999,-99.99,,,-99.99,,2013-05-16 03:00:00,
2013-05-15 22:59:00,72.0,-99.9,30.05,SSE,160,10.0,-999.0,-999,-99.99,,,-99.99,,2013-05-16 03:59:00,
2013-05-15 23:00:00,71.0,-99.9,30.03,SSE,150,14.0,-999.0,-999,-99.99,,,-99.99,,2013-05-16 04:00:00,